QPF
0.00 0.00 0.00 0.00 0.00 0.00 0.00 0.00 0.00 0.00 0.00 0.00 0.00 0.00 0.00 0.00 0.00 0.00 0.00 0.00 0.00 0.00 0.00 0.00 0.00 0.00 0.00 0.00 0.00 0.00 0.00 0.00 0.00 0.00 0.00 0.00 0.00 0.00 0.00 0.00 0.00 0.00
0.00 0.00 0.00 0.00 0.00 0.00 0.00 0.00 0.00 0.00 0.00 0.00 0.00 0.00 0.00 0.00 0.00 0.00 0.00 0.00 0.00 0.00 0.00 0.00 0.00 0.00 0.00 0.00 0.00 0.00 0.00 0.00 0.00 0.00 0.00 0.00 0.00 0.00 0.00 0.00 0.00 0.00
0.00 0.00 0.00 0.00 0.00 0.00 0.00 0.00 0.00 0.00 0.00 0.00 0.00 0.00 0.00 0.00 0.00 0.00 0.00 0.00 0.00 0.00 0.00 0.00 0.00 0.00 0.00 0.00 0.00 0.00 0.00 0.00 0.00 0.00 0.00 0.00 0.00 0.00 0.00 0.00 0.00 0.00
0.00 0.00 0.00 0.00 0.00 0.00 0.00 0.00 0.00 0.00 0.00 0.00 0.00 0.00 0.00 0.00 0.00 0.00 0.00 0.00 0.00 0.00 0.00 0.00 0.00 0.00 0.00 0.00 0.00 0.00 0.00 0.00 0.00 0.00 0.00 0.00 0.00 0.00 0.00 0.00 0.00 0.00
0.00 0.00 0.00 0.00 0.00 0.00 0.00 0.00 0.00 0.00 0.00 0.00 0.00 0.00 0.00 0.00 0.00 0.00 0.00 0.00 0.00 0.00 0.00 0.00 0.00 0.00 0.00 0.00 0.00 0.00 0.00 0.00 0.00 0.00 0.00 0.00 0.00 0.00 0.00 0.00 0.00 0.00
0.00 0.00 0.00 0.00 0.00 0.00 0.00 0.00 0.00 0.00 0.00 0.00 0.00 0.00 0.00 0.00 0.00 0.00 0.00 0.00 0.00 0.00 0.00 0.00 0.00 0.00 0.00 0.00 0.00 0.00 0.00 0.00 0.00 0.00 0.00 0.00 0.00 0.00 0.00 0.00 0.00 0.00
0.00 0.00 0.00 0.00 0.00 0.00 0.00 0.00 0.00 0.00 0.00 0.00 0.00 0.00 0.00 0.00 0.00 0.00 0.00 0.00 0.00 0.00 0.00 0.00 0.00 0.00 0.00 0.00 0.00 0.00 0.00 0.00 0.00 0.00 0.00 0.00 0.00 0.00 0.00 0.00 0.00 0.00
0.00 0.00 0.00 0.00 0.00 0.00 0.00 0.00 0.00 0.00 0.00 0.00 0.00 0.00 0.00 0.00 0.00 0.00 0.00 0.00 0.00 0.00 0.00 0.00 0.00 0.00 0.00 0.00 0.00 0.00 0.00 0.00 0.00 0.00 0.00 0.00 0.00 0.00 0.00 0.00 0.00 0.00
0.00 0.00 0.00 0.00 0.00 0.00 0.00 0.00 0.00 0.00 0.00 0.00 0.00 0.00 0.00 0.00 0.00 0.00 0.00 0.00 0.00 0.00 0.00 0.00 0.00 0.00 0.00 0.00 0.00 0.00 0.00 0.00 0.00 0.00 0.00 0.00 0.00 0.00 0.00 0.00 0.00 0.00
0.00 0.00 0.00 0.00 0.00 0.00 0.00 0.00 0.00 0.00 0.00 0.00 0.00 0.00 0.00 0.00 0.00 0.00 0.00 0.00 0.00 0.00 0.00 0.00 0.00 0.00 0.00 0.00 0.00 0.00 0.00 0.00 0.00 0.00 0.00 0.00 0.00 0.00 0.00 0.00 0.00 0.00
0.00 0.00 0.00 0.00 0.00 0.00 0.00 0.00 0.00 0.00 0.00 0.00 0.00 0.00 0.00 0.00 0.00 0.00 0.00 0.00 0.00 0.00 0.00 0.00 0.00 0.00 0.00 0.00 0.00 0.00 0.00 0.00 0.00 0.00 0.00 0.00 0.00 0.00 0.00 0.00 0.00 0.00
0.00 0.00 0.00 0.00 0.00 0.00 0.00 0.00 0.00 0.00 0.00 0.00 0.00 0.00 0.00 0.00 0.00 0.00 0.00 0.00 0.00 0.00 0.00 0.00 0.00 0.00 0.00 0.00 0.00 0.00 0.00 0.00 0.00 0.00 0.00 0.00 0.00 0.00 0.00 0.00 0.00 0.00
0.00 0.00 0.00 0.00 0.00 0.00 0.00 0.00 0.00 0.00 0.00 0.00 0.00 0.00 0.00 0.00 0.00 0.00 0.00 0.00 0.00 0.00 0.00 0.00 0.00 0.00 0.00 0.00 0.00 0.00 0.00 0.00 0.00 0.00 0.00 0.00 0.00 0.00 0.00 0.00 0.00 0.00
0.00 0.00 0.00 0.00 0.00 0.00 0.00 0.00 0.00 0.00 0.00 0.00 0.00 0.00 0.00 0.00 0.00 0.00 0.00 0.00 0.00 0.00 0.00 0.00 0.00 0.00 0.00 0.00 0.00 0.00 0.00 0.00 0.00 0.00 0.00 0.00 0.00 0.00 0.00 0.00 0.00 0.00
0.00 0.00 0.00 0.00 0.00 0.00 0.00 0.00 0.00 0.00 0.00 0.00 0.00 0.00 0.00 0.00 0.00 0.00 0.00 0.00 0.00 0.00 0.00 0.00 0.00 0.00 0.00 0.00 0.00 0.00 0.00 0.00 0.00 0.00 0.00 0.00 0.00 0.00 0.00 0.00 0.00 0.00
0.00 0.00 0.00 0.00 0.00 0.00 0.00 0.00 0.00 0.00 0.00 0.00 0.00 0.00 0.00 0.00 0.00 0.00 0.00 0.00 0.00 0.00 0.00 0.00 0.00 0.00 0.00 0.00 0.00 0.00 0.00 0.00 0.00 0.00 0.00 0.00 0.00 0.00 0.00 0.00 0.00 0.00
0.00 0.00 0.00 0.00 0.00 0.00 0.00 0.00 0.00 0.00 0.00 0.00 0.00 0.00 0.00 0.00 0.00 0.00 0.00 0.00 0.00 0.00 0.00 0.00 0.00 0.00 0.00 0.00 0.00 0.00 0.00 0.00 0.00 0.00 0.00 0.00 0.00 0.00 0.00 0.00 0.00 0.00
0.00 0.00 0.00 0.00 0.00 0.00 0.00 0.00 0.00 0.00 0.00 0.00 0.00 0.00 0.00 0.00 0.00 0.00 0.00 0.00 0.00 0.00 0.00 0.00 0.00 0.00 0.00 0.00 0.00 0.00 0.00 0.00 0.00 0.00 0.00 0.00 0.00 0.00 0.00 0.00 0.00 0.00
0.00 0.00 0.00 0.00 0.00 0.00 0.00 0.00 0.00 0.00 0.00 0.00 0.00 0.00 0.00 0.00 0.00 0.00 0.00 0.00 0.00 0.00 0.00 0.00 0.00 0.00 0.00 0.00 0.00 0.00 0.00 0.00 0.00 0.00 0.00 0.00 0.00 0.00 0.00 0.00 0.00 0.00
0.00 0.00 0.00 0.00 0.00 0.00 0.00 0.00 0.00 0.00 0.00 0.00 0.00 0.00 0.00 0.00 0.00 0.00 0.00 0.00 0.00 0.00 0.00 0.00 0.00 0.00 0.00 0.00 0.00 0.00 0.00 0.00 0.00 0.00 0.00 0.00 0.00 0.00 0.00 0.00 0.00 0.00
0.00 0.00 0.00 0.00 0.00 0.00 0.00 0.00 0.00 0.00 0.00 0.00 0.00 0.00 0.00 0.00 0.00 0.00 0.00 0.00 0.00 0.00 0.00 0.00 0.00 0.00 0.00 0.00 0.00 0.00 0.00 0.00 0.00 0.00 0.00 0.00 0.00 0.00 0.00 0.00 0.00 0.00
0.00 0.00 0.00 0.00 0.00 0.00 0.00 0.00 0.00 0.00 0.00 0.00 0.00 0.00 0.00 0.00 0.00 0.00 0.00 0.00 0.00 0.00 0.00 0.00 0.00 0.00 0.00 0.00 0.00 0.00 0.00 0.00 0.00 0.00 0.00 0.00 0.00 0.00 0.00 0.00 0.00 0.00
0.00 0.00 0.00 0.00 0.00 0.00 0.00 0.00 0.00 0.00 0.00 0.00 0.00 0.00 0.00 0.00 0.00 0.00 0.00 0.00 0.00 0.00 0.00 0.00 0.00 0.00 0.00 0.00 0.00 0.00 0.00 0.00 0.00 0.00 0.00 0.00 0.00 0.00 0.00 0.00 0.00 0.00
0.00 0.00 0.00 0.00 0.00 0.00 0.00 0.00 0.00 0.00 0.00 0.00 0.00 0.00 0.00 0.00 0.00 0.00 0.00 0.00 0.00 0.00 0.00 0.00 0.00 0.00 0.00 0.00 0.00 0.00 0.00 0.00 0.00 0.00 0.00 0.00 0.00 0.00 0.00 0.00 0.00 0.00
0.00 0.00 0.00 0.00 0.00 0.00 0.00 0.00 0.00 0.00 0.00 0.00 0.00 0.00 0.00 0.00 0.00 0.00 0.00 0.00 0.00 0.00 0.00 0.00 0.00 0.00 0.00 0.00 0.00 0.00 0.00 0.00 0.00 0.00 0.00 0.00 0.00 0.00 0.00 0.00 0.00 0.00
0.00 0.00 0.00 0.00 0.00 0.00 0.00 0.00 0.00 0.00 0.00 0.00 0.00 0.00 0.00 0.00 0.00 0.00 0.00 0.00 0.00 0.00 0.00 0.00 0.00 0.00 0.00 0.00 0.00 0.00 0.00 0.00 0.00 0.00 0.00 0.00 0.00 0.00 0.00 0.00 0.00 0.00
MSLP
1030.85 1030.85 1030.97 1031.01 1031.17 1031.29 1031.37 1031.41 1031.49 1031.49 1031.57 1031.57 1031.69 1032.09 1032.21 1032.49 1032.49 1032.45 1032.49 1032.41 1032.41 1032.33 1032.33 1032.33 1032.29 1032.29 1032.25 1032.21 1032.17 1032.09 1032.01 1032.13 1032.05 1032.05 1032.05 1031.89 1031.77 1031.73 1031.65 1031.53 1031.41 1031.25
1031.17 1031.17 1031.17 1031.17 1031.33 1031.49 1031.57 1031.53 1031.57 1031.53 1031.73 1031.85 1032.01 1032.17 1032.37 1032.45 1032.53 1032.57 1032.57 1032.57 1032.53 1032.49 1032.45 1032.41 1032.41 1032.37 1032.37 1032.29 1032.25 1032.17 1032.17 1032.17 1032.17 1032.17 1032.17 1032.01 1031.93 1031.85 1031.73 1031.69 1031.57 1031.37
1031.25 1031.21 1031.21 1031.25 1031.45 1031.69 1031.81 1031.81 1031.69 1031.73 1031.81 1032.09 1032.21 1032.29 1032.45 1032.53 1032.61 1032.65 1032.73 1032.73 1032.65 1032.61 1032.57 1032.61 1032.61 1032.61 1032.57 1032.57 1032.49 1032.41 1032.41 1032.37 1032.33 1032.33 1032.29 1032.17 1032.13 1032.01 1031.89 1031.77 1031.61 1031.45
1031.33 1031.33 1031.41 1031.61 1031.65 1031.73 1031.81 1031.69 1031.73 1031.89 1032.09 1032.21 1032.41 1032.57 1032.57 1032.69 1032.73 1032.85 1032.85 1032.81 1032.73 1032.69 1032.73 1032.73 1032.73 1032.73 1032.73 1032.69 1032.61 1032.53 1032.53 1032.49 1032.45 1032.45 1032.37 1032.25 1032.17 1032.01 1031.89 1031.69 1031.53 1031.41
1031.41 1031.65 1031.77 1031.77 1031.77 1031.77 1031.85 1031.81 1032.01 1032.25 1032.37 1032.53 1032.65 1032.65 1032.69 1032.73 1032.77 1032.77 1032.77 1032.73 1032.69 1032.73 1032.77 1032.77 1032.77 1032.73 1032.69 1032.61 1032.53 1032.41 1032.33 1032.33 1032.29 1032.25 1032.17 1032.09 1031.97 1031.89 1031.77 1031.57 1031.49 1031.33
1031.69 1031.77 1031.77 1031.69 1031.77 1031.85 1031.97 1032.09 1032.21 1032.29 1032.37 1032.41 1032.53 1032.61 1032.65 1032.69 1032.69 1032.77 1032.81 1032.81 1032.85 1032.81 1032.77 1032.73 1032.65 1032.61 1032.61 1032.61 1032.53 1032.45 1032.37 1032.25 1032.17 1032.17 1032.09 1031.93 1031.77 1031.69 1031.65 1031.49 1031.33 1031.17
1031.57 1031.69 1031.73 1031.85 1031.89 1031.97 1031.93 1032.05 1032.13 1032.21 1032.25 1032.37 1032.53 1032.61 1032.73 1032.73 1032.77 1032.85 1032.85 1032.89 1032.89 1032.89 1032.93 1032.93 1032.89 1032.89 1032.81 1032.81 1032.73 1032.65 1032.53 1032.45 1032.33 1032.21 1032.13 1031.93 1031.77 1031.61 1031.49 1031.37 1031.21 1031.09
1031.49 1031.65 1031.69 1031.73 1031.73 1031.89 1031.93 1032.09 1032.21 1032.33 1032.41 1032.49 1032.57 1032.77 1032.81 1032.81 1032.85 1032.93 1032.97 1033.01 1033.05 1033.05 1033.13 1033.13 1033.09 1033.05 1033.01 1032.93 1032.81 1032.69 1032.57 1032.45 1032.37 1032.25 1032.09 1031.97 1031.77 1031.65 1031.41 1031.33 1031.17 1031.01
1031.37 1031.45 1031.57 1031.69 1031.81 1031.89 1031.93 1032.05 1032.21 1032.37 1032.49 1032.49 1032.65 1032.77 1032.85 1032.93 1033.01 1033.05 1033.13 1033.13 1033.17 1033.17 1033.17 1033.21 1033.13 1033.13 1033.01 1032.97 1032.85 1032.73 1032.57 1032.41 1032.33 1032.21 1032.09 1031.89 1031.73 1031.53 1031.41 1031.25 1031.13 1030.93
1031.17 1031.45 1031.49 1031.49 1031.53 1031.77 1031.89 1032.13 1032.29 1032.45 1032.57 1032.61 1032.77 1032.85 1032.93 1033.01 1033.09 1033.17 1033.17 1033.25 1033.25 1033.29 1033.25 1033.25 1033.21 1033.13 1033.09 1032.97 1032.85 1032.73 1032.61 1032.45 1032.29 1032.17 1032.01 1031.89 1031.73 1031.53 1031.33 1031.21 1031.09 1030.85
1031.01 1031.17 1031.29 1031.45 1031.61 1031.85 1032.05 1032.25 1032.41 1032.53 1032.65 1032.69 1032.81 1032.93 1033.05 1033.13 1033.17 1033.25 1033.33 1033.33 1033.41 1033.37 1033.37 1033.29 1033.25 1033.17 1033.09 1032.97 1032.77 1032.65 1032.53 1032.37 1032.21 1032.01 1031.85 1031.69 1031.53 1031.41 1031.29 1031.17 1031.01 1030.89
1030.81 1031.05 1031.21 1031.45 1031.69 1031.97 1032.13 1032.33 1032.49 1032.61 1032.77 1032.89 1033.05 1033.13 1033.17 1033.25 1033.33 1033.37 1033.37 1033.45 1033.45 1033.41 1033.37 1033.33 1033.25 1033.17 1033.05 1032.89 1032.73 1032.57 1032.41 1032.25 1032.05 1031.89 1031.69 1031.57 1031.37 1031.25 1031.13 1031.05 1030.93 1030.81
1030.69 1030.85 1031.17 1031.45 1031.73 1031.97 1032.25 1032.45 1032.65 1032.85 1032.97 1033.13 1033.21 1033.29 1033.33 1033.37 1033.37 1033.41 1033.37 1033.45 1033.41 1033.37 1033.37 1033.29 1033.25 1033.13 1033.01 1032.81 1032.65 1032.49 1032.29 1032.09 1031.89 1031.69 1031.53 1031.37 1031.21 1031.09 1030.97 1030.85 1030.77 1030.65
1030.49 1030.85 1031.17 1031.45 1031.77 1032.09 1032.33 1032.57 1032.81 1033.05 1033.25 1033.37 1033.41 1033.41 1033.41 1033.41 1033.37 1033.37 1033.33 1033.37 1033.33 1033.37 1033.33 1033.33 1033.25 1033.13 1032.93 1032.77 1032.57 1032.33 1032.05 1031.81 1031.61 1031.45 1031.29 1031.17 1031.01 1030.85 1030.73 1030.61 1030.53 1030.41
1030.49 1030.97 1031.25 1031.49 1031.85 1032.17 1032.45 1032.69 1032.97 1033.25 1033.41 1033.53 1033.49 1033.41 1033.33 1033.33 1033.33 1033.29 1033.37 1033.37 1033.41 1033.37 1033.41 1033.33 1033.29 1033.09 1032.93 1032.65 1032.29 1031.93 1031.73 1031.57 1031.37 1031.25 1031.13 1030.93 1030.77 1030.65 1030.53 1030.41 1030.33 1030.17
1030.49 1030.85 1031.13 1031.49 1031.85 1032.13 1032.45 1032.77 1033.09 1033.41 1033.53 1033.49 1033.45 1033.41 1033.41 1033.37 1033.41 1033.33 1033.29 1033.33 1033.37 1033.37 1033.33 1033.29 1033.17 1033.01 1032.81 1032.41 1032.05 1031.77 1031.53 1031.37 1031.21 1031.09 1030.89 1030.73 1030.61 1030.45 1030.29 1030.21 1030.01 1029.85
1030.41 1030.69 1031.09 1031.37 1031.77 1032.21 1032.53 1032.85 1033.17 1033.45 1033.53 1033.53 1033.53 1033.57 1033.49 1033.45 1033.37 1033.25 1033.25 1033.21 1033.25 1033.25 1033.29 1033.21 1033.13 1032.97 1032.57 1032.13 1031.89 1031.61 1031.45 1031.25 1031.09 1030.85 1030.69 1030.57 1030.45 1030.29 1030.13 1029.89 1029.77 1029.65
1030.21 1030.61 1030.93 1031.41 1031.89 1032.17 1032.57 1032.93 1033.25 1033.53 1033.61 1033.65 1033.65 1033.53 1033.45 1033.37 1033.29 1033.17 1033.17 1033.13 1033.17 1033.17 1033.17 1033.13 1033.05 1032.81 1032.37 1032.01 1031.69 1031.45 1031.25 1031.05 1030.85 1030.69 1030.53 1030.41 1030.21 1030.09 1029.97 1029.81 1029.73 1029.61
1030.09 1030.45 1030.81 1031.33 1031.77 1032.21 1032.69 1033.09 1033.29 1033.57 1033.69 1033.69 1033.45 1033.33 1033.33 1033.25 1033.13 1033.17 1033.13 1033.13 1033.13 1033.17 1033.17 1033.09 1033.01 1032.69 1032.25 1031.85 1031.53 1031.25 1031.05 1030.89 1030.69 1030.49 1030.33 1030.17 1030.13 1030.09 1030.05 1029.89 1029.73 1029.53
1030.01 1030.33 1030.65 1031.21 1031.85 1032.29 1032.77 1033.01 1033.33 1033.33 1033.45 1033.45 1033.33 1033.17 1033.13 1033.17 1033.13 1033.09 1033.09 1033.09 1033.09 1033.13 1033.09 1033.01 1032.93 1032.57 1032.05 1031.61 1031.37 1031.13 1030.89 1030.65 1030.45 1030.33 1030.25 1030.17 1030.17 1030.13 1030.05 1029.85 1029.65 1029.45
1029.97 1030.25 1030.57 1031.25 1031.81 1032.29 1032.65 1032.89 1033.09 1033.33 1033.37 1033.25 1033.13 1033.01 1033.01 1032.93 1032.89 1032.93 1032.97 1033.05 1033.05 1033.05 1033.05 1033.01 1032.81 1032.33 1031.85 1031.53 1031.25 1030.97 1030.69 1030.41 1030.33 1030.29 1030.29 1030.21 1030.09 1029.97 1029.81 1029.61 1029.45 1029.17
1029.81 1030.17 1030.57 1031.21 1031.69 1032.17 1032.37 1032.53 1032.89 1033.05 1032.89 1033.01 1033.01 1032.93 1032.93 1032.89 1032.85 1032.81 1032.85 1032.89 1032.93 1032.97 1032.97 1032.81 1032.69 1032.21 1031.81 1031.45 1031.09 1030.81 1030.49 1030.37 1030.37 1030.29 1030.13 1029.97 1029.81 1029.65 1029.49 1029.29 1029.09 1028.93
1029.69 1029.93 1030.41 1030.93 1031.49 1031.73 1031.93 1032.17 1032.41 1032.57 1032.73 1032.85 1032.65 1032.69 1032.73 1032.69 1032.69 1032.77 1032.81 1032.85 1032.85 1032.89 1032.81 1032.69 1032.57 1032.29 1031.77 1031.29 1030.93 1030.61 1030.41 1030.37 1030.17 1029.97 1029.81 1029.69 1029.49 1029.29 1029.09 1028.89 1028.73 1028.57
1029.69 1029.85 1030.13 1030.69 1031.21 1031.13 1031.41 1031.97 1032.41 1032.53 1032.53 1032.65 1032.53 1032.53 1032.53 1032.65 1032.73 1032.81 1032.81 1032.73 1032.73 1032.73 1032.73 1032.53 1032.29 1032.05 1031.61 1031.17 1030.81 1030.49 1030.25 1030.05 1029.93 1029.77 1029.53 1029.33 1029.01 1028.81 1028.65 1028.41 1028.29 1028.13
1029.77 1029.97 1030.17 1030.49 1030.77 1031.13 1031.65 1031.69 1031.93 1032.13 1032.45 1032.61 1032.73 1032.77 1032.73 1032.81 1032.77 1032.69 1032.65 1032.65 1032.61 1032.57 1032.41 1032.17 1032.01 1031.97 1031.65 1031.13 1030.65 1030.29 1030.01 1029.81 1029.61 1029.37 1029.09 1028.85 1028.65 1028.41 1028.25 1028.09 1027.69 1027.45
1029.93 1030.05 1030.41 1030.57 1030.81 1031.41 1031.89 1031.97 1032.17 1032.37 1032.45 1032.53 1032.69 1032.77 1032.77 1032.77 1032.69 1032.57 1032.49 1032.41 1032.41 1032.41 1032.37 1032.25 1032.01 1031.77 1031.65 1030.93 1030.45 1030.01 1029.69 1029.49 1029.29 1029.13 1028.81 1028.53 1028.29 1028.01 1027.61 1027.21 1027.01 1026.65
Thickness
5468 5467 5465 5462 5459 5457 5454 5452 5450 5448 5447 5445 5442 5439 5436 5434 5432 5432 5430 5429 5428 5428 5426 5425 5424 5422 5421 5420 5419 5418 5416 5414 5413 5411 5410 5410 5409 5409 5409 5409 5409 5409
5458 5456 5454 5453 5450 5447 5444 5442 5441 5439 5437 5434 5432 5429 5426 5425 5423 5422 5421 5419 5419 5418 5417 5416 5414 5412 5411 5410 5408 5407 5406 5403 5402 5400 5399 5398 5397 5397 5396 5395 5395 5396
5449 5447 5445 5442 5440 5437 5434 5433 5432 5430 5428 5424 5422 5419 5417 5416 5414 5412 5410 5409 5409 5408 5406 5405 5403 5402 5401 5400 5398 5396 5394 5393 5391 5389 5388 5387 5387 5386 5385 5385 5385 5385
5439 5437 5434 5432 5429 5427 5425 5424 5422 5420 5417 5415 5412 5410 5408 5406 5403 5402 5400 5399 5398 5396 5395 5393 5392 5391 5389 5388 5387 5386 5384 5383 5381 5380 5378 5377 5377 5376 5375 5375 5375 5375
5429 5426 5423 5421 5420 5418 5416 5414 5412 5409 5406 5404 5401 5400 5398 5396 5394 5392 5391 5390 5388 5386 5384 5382 5380 5379 5378 5376 5376 5374 5373 5372 5371 5370 5369 5368 5366 5366 5365 5365 5364 5364
5419 5416 5414 5412 5410 5409 5407 5404 5402 5400 5397 5395 5392 5390 5388 5387 5384 5383 5381 5379 5377 5376 5373 5371 5369 5367 5366 5364 5363 5362 5361 5360 5360 5359 5358 5357 5356 5355 5354 5354 5354 5353
5410 5407 5405 5404 5401 5400 5398 5395 5393 5391 5389 5385 5383 5380 5378 5376 5374 5371 5370 5368 5366 5364 5362 5359 5358 5355 5354 5352 5350 5349 5348 5347 5347 5346 5345 5344 5343 5342 5341 5340 5341 5341
5401 5398 5396 5394 5392 5389 5387 5385 5383 5380 5378 5375 5372 5370 5367 5365 5363 5361 5359 5357 5354 5352 5350 5348 5346 5343 5341 5340 5338 5337 5336 5335 5334 5333 5331 5331 5330 5329 5328 5326 5326 5327
5393 5390 5387 5385 5382 5380 5377 5375 5372 5370 5368 5365 5362 5360 5358 5355 5353 5350 5347 5345 5343 5341 5338 5336 5334 5332 5330 5328 5327 5326 5325 5323 5322 5321 5319 5319 5317 5316 5315 5313 5312 5313
5386 5382 5379 5376 5373 5371 5368 5365 5363 5360 5358 5355 5353 5350 5348 5345 5342 5339 5337 5334 5332 5329 5327 5325 5322 5320 5318 5316 5316 5314 5313 5312 5311 5309 5308 5307 5306 5304 5302 5301 5299 5299
5378 5374 5370 5367 5364 5361 5358 5356 5353 5351 5347 5345 5343 5339 5336 5333 5330 5328 5325 5322 5320 5318 5315 5313 5311 5308 5306 5305 5304 5303 5302 5301 5300 5299 5297 5296 5294 5292 5291 5289 5288 5288
5370 5366 5362 5358 5354 5351 5348 5346 5343 5340 5337 5334 5331 5328 5325 5322 5319 5317 5314 5311 5309 5306 5304 5302 5299 5297 5295 5294 5293 5292 5291 5290 5289 5288 5287 5285 5283 5281 5280 5278 5276 5276
5362 5358 5354 5349 5345 5342 5338 5335 5333 5329 5326 5322 5319 5316 5313 5310 5308 5305 5303 5301 5298 5295 5293 5290 5287 5285 5284 5283 5282 5281 5280 5280 5279 5277 5276 5275 5272 5271 5269 5267 5266 5265
5354 5349 5344 5340 5336 5333 5328 5325 5322 5318 5315 5311 5307 5305 5302 5300 5298 5295 5293 5290 5286 5284 5281 5279 5276 5274 5272 5272 5271 5271 5269 5269 5268 5267 5266 5264 5262 5260 5258 5256 5256 5255
5345 5340 5336 5331 5326 5322 5319 5315 5312 5307 5304 5300 5297 5295 5292 5289 5287 5285 5282 5278 5275 5273 5269 5267 5264 5262 5260 5260 5260 5260 5259 5258 5258 5256 5255 5254 5252 5250 5249 5248 5247 5246
5337 5331 5326 5321 5317 5313 5309 5305 5301 5296 5293 5291 5288 5285 5282 5279 5276 5274 5271 5267 5265 5262 5258 5256 5253 5251 5250 5250 5249 5249 5249 5248 5248 5247 5245 5245 5244 5242 5241 5240 5238 5238
5329 5324 5318 5312 5307 5303 5299 5295 5290 5286 5283 5280 5277 5274 5271 5269 5266 5264 5261 5258 5254 5252 5249 5246 5243 5241 5241 5240 5240 5239 5239 5239 5239 5239 5237 5236 5235 5234 5233 5232 5231 5229
5321 5316 5310 5304 5298 5293 5289 5284 5280 5276 5272 5269 5267 5264 5261 5259 5256 5254 5251 5248 5246 5243 5240 5238 5235 5234 5233 5233 5233 5231 5230 5231 5230 5230 5230 5228 5227 5226 5224 5223 5222 5221
5312 5307 5301 5295 5289 5283 5278 5274 5269 5265 5262 5259 5257 5255 5252 5250 5247 5245 5242 5240 5238 5235 5233 5231 5228 5226 5226 5225 5226 5224 5223 5223 5222 5222 5221 5220 5218 5216 5214 5213 5212 5211
5303 5299 5293 5287 5280 5274 5269 5264 5259 5255 5252 5250 5248 5246 5244 5241 5238 5237 5235 5232 5230 5228 5226 5224 5220 5219 5219 5218 5218 5217 5216 5215 5215 5214 5212 5210 5209 5206 5204 5203 5202 5201
5294 5290 5284 5278 5271 5264 5259 5254 5249 5246 5243 5242 5240 5238 5236 5234 5232 5230 5228 5225 5223 5220 5219 5217 5213 5211 5211 5211 5210 5209 5208 5207 5206 5205 5204 5202 5200 5197 5196 5195 5192 5191
5286 5281 5274 5269 5262 5255 5251 5246 5242 5238 5236 5234 5233 5230 5228 5226 5225 5223 5221 5219 5216 5213 5211 5209 5207 5204 5203 5203 5202 5201 5200 5199 5197 5197 5195 5194 5192 5189 5187 5186 5184 5181
5276 5272 5266 5259 5253 5248 5243 5239 5235 5232 5229 5227 5226 5224 5221 5220 5218 5215 5213 5211 5208 5205 5204 5202 5199 5196 5195 5195 5194 5192 5191 5190 5189 5189 5187 5185 5183 5181 5179 5178 5175 5171
5267 5262 5257 5250 5245 5241 5236 5232 5228 5225 5223 5220 5218 5216 5214 5212 5210 5208 5206 5203 5201 5198 5196 5195 5193 5190 5188 5188 5186 5184 5183 5182 5181 5181 5179 5177 5176 5174 5172 5170 5167 5164
5257 5252 5247 5242 5237 5233 5228 5225 5222 5218 5216 5213 5211 5209 5207 5205 5202 5201 5200 5197 5194 5191 5188 5187 5186 5183 5180 5180 5178 5175 5174 5173 5172 5172 5171 5169 5168 5166 5165 5163 5161 5160
5247 5243 5238 5233 5229 5225 5221 5218 5215 5211 5209 5207 5204 5201 5200 5198 5196 5194 5193 5191 5187 5185 5182 5179 5178 5177 5174 5172 5171 5168 5166 5165 5163 5163 5162 5161 5161 5159 5159 5159 5157 5156